CW0641 Weather Reports


Display with metric or nautical units.
time (UTC)temp
F
wind
direction
speed
MPH
gust
MPH
rain 1hr
in
rain 24hr
in
rain mn
in
humidity
%
barometer
mb
20181121173817 59 350 0.0 3.0 0.00 0.01 0.01 90 1012.5
20181121173317 59 350 1.0 4.0 0.00 0.01 0.01 90 1012.5
20181121172817 59 355 2.0 4.0 0.00 0.01 0.01 90 1012.5
20181121172309 59 338 2.0 4.0 0.00 0.01 0.01 90 1012.6
20181121171805 59 338 2.0 4.0 0.00 0.01 0.01 90 1012.8
20181121171249 59 317 2.0 4.0 0.00 0.01 0.01 90 1012.6
20181121170750 59 305 3.0 5.0 0.00 0.01 0.01 90 1012.5
20181121170233 59 315 2.0 5.0 0.00 0.01 0.01 90 1012.6
20181121165732 59 301 2.0 5.0 0.00 0.01 0.01 90 1012.5
20181121165233 59 306 2.0 5.0 0.00 0.01 0.01 90 1012.5
20181121164732 60 296 3.0 5.0 0.00 0.01 0.01 89 1012.5
20181121164233 60 321 3.0 8.0 0.00 0.01 0.01 89 1012.5
20181121163729 60 350 3.0 8.0 0.00 0.01 0.01 89 1012.6
20181121163228 60 304 2.0 5.0 0.00 0.01 0.01 89 1012.8
20181121162729 60 257 2.0 5.0 0.00 0.01 0.01 89 1012.6
20181121162226 60 286 1.0 6.0 0.00 0.01 0.01 88 1012.8
20181121161725 60 275 1.0 8.0 0.00 0.01 0.01 88 1012.5
20181121161225 60 317 2.0 8.0 0.00 0.01 0.01 88 1012.5
20181121160725 60 317 3.0 8.0 0.00 0.01 0.01 88 1012.6
20181121160224 60 302 5.0 10.0 0.00 0.01 0.01 88 1012.5
20181121155725 60 288 3.0 10.0 0.00 0.01 0.01 87 1012.5
20181121155225 61 308 2.0 7.0 0.00 0.01 0.01 87 1012.5
20181121154725 61 346 3.0 7.0 0.00 0.01 0.01 86 1012.5
20181121154225 61 333 3.0 7.0 0.00 0.01 0.01 86 1012.5
20181121153725 61 320 3.0 9.0 0.00 0.01 0.01 86 1012.5
20181121153221 61 300 3.0 9.0 0.00 0.01 0.01 85 1012.5
20181121152717 61 316 3.0 9.0 0.00 0.01 0.01 84 1012.5
20181121152216 62 321 3.0 8.0 0.00 0.01 0.01 83 1012.4
20181121151717 62 314 4.0 9.0 0.00 0.01 0.01 82 1012.5
20181121151218 62 306 4.0 9.0 0.00 0.01 0.01 80 1012.4
20181121150716 63 351 3.0 9.0 0.00 0.01 0.01 78 1012.4
20181121150217 63 337 3.0 9.0 0.00 0.01 0.01 75 1012.4
20181121145720 63 290 4.0 9.0 0.00 0.01 0.01 73 1012.3
20181121145216 63 277 4.0 8.0 0.00 0.01 0.01 72 1012.3
20181121144717 63 284 3.0 8.0 0.00 0.01 0.01 70 1012.3
20181121144217 63 327 4.0 9.0 0.00 0.01 0.01 69 1012.3
20181121143716 63 320 3.0 9.0 0.00 0.01 0.01 68 1012.3
20181121143217 63 332 3.0 9.0 0.00 0.01 0.01 67 1012.3
20181121142717 63 346 4.0 9.0 0.00 0.01 0.01 66 1012.3
20181121142217 63 335 5.0 9.0 0.00 0.01 0.01 65 1012.3
20181121141717 64 348 5.0 9.0 0.00 0.01 0.01 65 1012.3
20181121141212 64 313 5.0 10.0 0.00 0.01 0.01 65 1012.3
20181121140709 64 326 6.0 10.0 0.00 0.01 0.01 65 1012.3
20181121140209 64 294 6.0 10.0 0.00 0.01 0.01 64 1012.3
20181121135709 64 305 6.0 10.0 0.00 0.01 0.01 63 1012.3
20181121135208 64 330 6.0 10.0 0.00 0.01 0.01 63 1012.3
20181121134709 65 310 6.0 10.0 0.00 0.01 0.01 63 1012.4
20181121134205 65 339 6.0 10.0 0.00 0.01 0.01 63 1012.4
20181121133705 65 346 5.0 10.0 0.00 0.01 0.01 62 1012.4
20181121133206 65 331 5.0 10.0 0.00 0.01 0.01 61 1012.4
20181121132705 65 262 5.0 9.0 0.00 0.01 0.01 63 1012.4
20181121132205 65 302 4.0 9.0 0.00 0.01 0.01 63 1012.3
20181121131705 66 336 5.0 9.0 0.00 0.01 0.01 64 1012.3
20181121131205 66 289 5.0 9.0 0.00 0.01 0.01 64 1012.4
20181121130705 65 284 5.0 9.0 0.00 0.01 0.01 63 1012.4
20181121130205 65 341 4.0 9.0 0.00 0.01 0.01 63 1012.4
20181121125705 65 344 4.0 9.0 0.00 0.01 0.01 64 1012.3
20181121125205 65 315 4.0 9.0 0.00 0.01 0.01 65 1012.4
20181121124704 65 314 5.0 11.0 0.00 0.01 0.01 64 1012.4
20181121124205 65 261 6.0 12.0 0.00 0.01 0.01 63 1012.4
20181121123705 65 312 5.0 12.0 0.00 0.01 0.01 62 1012.5
20181121123204 65 309 6.0 11.0 0.00 0.01 0.01 64 1012.5
20181121122705 65 295 6.0 11.0 0.00 0.01 0.01 63 1012.6
20181121122205 66 300 5.0 10.0 0.00 0.01 0.01 61 1012.5
20181121121705 66 344 4.0 9.0 0.00 0.01 0.01 62 1012.5
20181121121205 66 320 5.0 10.0 0.00 0.01 0.01 62 1012.5
20181121120706 66 280 5.0 11.0 0.00 0.01 0.01 59 1012.6
20181121120205 66 263 5.0 11.0 0.00 0.01 0.01 59 1012.6
20181121115704 66 333 5.0 11.0 0.00 0.01 0.01 61 1012.8
20181121115205 66 288 5.0 10.0 0.00 0.01 0.01 62 1012.8
20181121114705 66 321 6.0 14.0 0.00 0.01 0.01 62 1012.8
20181121114205 66 336 7.0 14.0 0.00 0.01 0.01 61 1012.6
20181121113705 67 286 5.0 13.0 0.00 0.01 0.01 62 1012.9
20181121113205 67 326 5.0 11.0 0.00 0.01 0.01 64 1012.8
20181121112705 67 329 6.0 12.0 0.00 0.01 0.01 62 1012.8
20181121112206 67 249 6.0 12.0 0.00 0.01 0.01 63 1012.8
20181121111705 67 299 6.0 12.0 0.00 0.01 0.01 62 1012.8
20181121111205 66 253 6.0 10.0 0.00 0.01 0.01 61 1012.8
20181121110705 66 284 6.0 10.0 0.00 0.01 0.01 60 1012.8
20181121110205 67 275 5.0 10.0 0.00 0.01 0.01 60 1012.8
20181121105705 67 343 5.0 10.0 0.00 0.01 0.01 57 1012.9
20181121105206 67 238 6.0 11.0 0.00 0.01 0.01 52 1013.0
20181121104705 67 247 5.0 11.0 0.00 0.01 0.01 59 1013.0
20181121104205 67 230 3.0 8.0 0.00 0.01 0.01 59 1013.0
20181121103704 67 319 3.0 8.0 0.00 0.01 0.01 58 1013.1
20181121103205 67 289 4.0 8.0 0.00 0.01 0.01 56 1013.2
20181121102705 67 304 4.0 9.0 0.00 0.01 0.01 53 1013.2
20181121102205 67 300 4.0 9.0 0.00 0.01 0.01 49 1013.3
20181121101701 66 249 5.0 10.0 0.00 0.01 0.01 49 1013.2
20181121101201 66 316 4.0 10.0 0.00 0.01 0.01 55 1013.3
20181121100701 66 342 4.0 8.0 0.00 0.01 0.01 57 1013.4
20181121100200 66 297 3.0 8.0 0.00 0.01 0.01 60 1013.4
20181121095701 65 344 3.0 7.0 0.00 0.01 0.01 60 1013.5
20181121095201 65 5 4.0 8.0 0.00 0.01 0.01 61 1013.6
20181121094701 65 298 3.0 8.0 0.00 0.01 0.01 62 1013.7
20181121094202 65 241 2.0 6.0 0.00 0.01 0.01 62 1013.8
20181121093700 65 275 2.0 8.0 0.00 0.01 0.01 64 1013.9
20181121093201 65 5 2.0 8.0 0.00 0.01 0.01 66 1013.9
20181121092701 65 281 2.0 5.0 0.00 0.01 0.01 69 1013.9
20181121092203 64 265 2.0 5.0 0.00 0.01 0.01 73 1014.0
20181121091701 64 304 2.0 6.0 0.00 0.01 0.01 75 1014.3
20181121091201 64 304 3.0 6.0 0.00 0.01 0.01 74 1014.3
20181121090701 64 332 3.0 6.0 0.00 0.01 0.01 75 1014.4
20181121090201 63 350 3.0 6.0 0.00 0.01 0.01 76 1014.5
20181121085657 64 336 3.0 8.0 0.00 0.01 0.01 78 1014.6
20181121085157 64 340 3.0 8.0 0.00 0.01 0.01 80 1014.6
20181121084657 63 334 3.0 8.0 0.00 0.01 0.01 79 1014.7
20181121084157 63 351 3.0 6.0 0.00 0.01 0.01 80 1014.7
20181121083657 62 15 2.0 5.0 0.00 0.01 0.01 83 1014.7
20181121083157 62 292 1.0 5.0 0.00 0.01 0.01 84 1014.7
20181121082657 62 309 1.0 6.0 0.00 0.01 0.01 86 1014.7
20181121082153 62 292 2.0 7.0 0.00 0.01 0.01 86 1014.8
20181121081649 62 287 2.0 7.0 0.00 0.01 0.01 87 1014.8
20181121081148 62 288 2.0 6.0 0.00 0.01 0.01 88 1014.9
20181121080649 61 0 2.0 5.0 0.00 0.01 0.01 88 1015.0
20181121080145 61 332 3.0 8.0 0.00 0.01 0.01 88 1015.0
20181121075644 61 322 4.0 8.0 0.00 0.01 0.01 87 1015.0
20181121075144 61 318 4.0 8.0 0.00 0.01 0.01 87 1015.1
20181121074644 61 319 3.0 8.0 0.00 0.01 0.01 86 1015.1
20181121074146 61 293 2.0 6.0 0.00 0.01 0.01 87 1015.1
20181121073645 61 275 3.0 9.0 0.00 0.01 0.01 86 1015.1
20181121073145 61 317 5.0 9.0 0.00 0.01 0.01 86 1015.1
20181121072645 61 315 4.0 9.0 0.00 0.01 0.01 85 1015.1
20181121072145 61 343 3.0 6.0 0.00 0.01 0.01 85 1015.0
20181121071641 61 0 2.0 5.0 0.00 0.01 0.01 84 1014.9
20181121071141 61 355 2.0 5.0 0.00 0.01 0.01 84 1014.9
20181121070641 61 348 2.0 5.0 0.00 0.01 0.01 84 1014.8
20181121070137 61 297 1.0 4.0 0.00 0.01 0.01 85 1014.9
20181121065640 61 330 2.0 4.0 0.00 0.01 0.01 85 1014.9
20181121065137 60 294 2.0 4.0 0.00 0.01 0.01 85 1014.9
20181121055121 59 326 1.0 4.0 0.00 0.01 0.01 89 1015.0
20181121054621 58 10 0.0 0.0 0.00 0.01 0.01 89 1014.9
20181121054123 58 10 0.0 0.0 0.00 0.01 0.01 90 1014.9
20181121053621 58 10 0.0 0.0 0.00 0.01 0.01 90 1014.8
20181121053121 58 10 0.0 0.0 0.00 0.01 0.01 90 1014.8
20181121052617 58 10 0.0 0.0 0.00 0.01 0.01 90 1014.7
20181121052116 58 10 0.0 0.0 0.00 0.01 0.01 90 1014.6
20181121051609 58 10 0.0 0.0 0.00 0.01 0.01 90 1014.6
20181121051058 57 10 0.0 0.0 0.00 0.01 0.01 90 1014.5
20181121050552 57 10 0.0 0.0 0.00 0.01 0.01 90 1014.5
20181121050050 57 10 0.0 0.0 0.00 0.01 0.01 90 1014.6
20181121045548 57 10 0.0 0.0 0.00 0.01 0.01 91 1014.5
20181121045045 57 10 0.0 0.0 0.00 0.01 0.01 90 1014.5
20181121044541 57 10 0.0 0.0 0.00 0.01 0.01 90 1014.5
20181121044041 57 5 0.0 0.0 0.00 0.01 0.01 90 1014.7
20181121043541 57 5 0.0 0.0 0.00 0.01 0.01 90 1014.6
20181121043025 57 5 0.0 0.0 0.00 0.01 0.01 90 1014.5
20181121042514 57 5 0.0 0.0 0.00 0.01 0.01 90 1014.6
20181121042009 57 5 0.0 0.0 0.00 0.01 0.01 90 1014.6
20181121041457 57 5 0.0 0.0 0.00 0.01 0.01 90 1014.6
20181121040953 56 5 0.0 0.0 0.00 0.01 0.01 90 1014.6
20181121040449 56 5 0.0 0.0 0.00 0.01 0.01 90 1014.6
20181121035938 56 5 0.0 0.0 0.00 0.01 0.01 89 1014.6
20181121035437 57 5 0.0 0.0 0.00 0.01 0.01 89 1014.6
20181121034937 57 5 0.0 0.0 0.00 0.01 0.01 89 1014.5
20181121034439 57 5 0.0 0.0 0.00 0.01 0.01 89 1014.5
20181121033937 57 5 0.0 0.0 0.00 0.01 0.01 89 1014.5
20181121033425 57 5 0.0 0.0 0.00 0.01 0.01 89 1014.5
20181121032924 57 5 0.0 0.0 0.00 0.01 0.01 89 1014.5
20181121032425 57 5 0.0 0.0 0.00 0.01 0.01 88 1014.5
20181121031921 57 5 0.0 2.0 0.00 0.01 0.01 88 1014.4
20181121031423 57 5 0.0 2.0 0.00 0.01 0.01 88 1014.3
20181121030919 57 5 0.0 2.0 0.00 0.01 0.01 88 1014.4
20181121030417 57 5 0.0 0.0 0.00 0.01 0.01 87 1014.4
20181121025917 57 5 0.0 0.0 0.00 0.01 0.01 86 1014.3
20181121025417 57 5 0.0 0.0 0.00 0.02 0.01 86 1014.3
20181121024916 58 5 1.0 4.0 0.00 0.02 0.01 85 1014.3
20181121024417 58 5 2.0 4.0 0.00 0.02 0.01 85 1014.3
20181121023919 58 355 2.0 5.0 0.00 0.02 0.01 84 1014.3
20181121023418 58 350 2.0 5.0 0.00 0.02 0.01 84 1014.4
20181121022917 58 333 2.0 4.0 0.00 0.02 0.01 83 1014.3
20181121022413 59 332 2.0 5.0 0.00 0.02 0.01 82 1014.4
20181121021912 59 344 2.0 5.0 0.00 0.02 0.01 81 1014.3
20181121021413 59 315 3.0 5.0 0.00 0.02 0.01 80 1014.4
20181121020913 59 342 3.0 5.0 0.00 0.02 0.01 79 1014.4
20181121020413 59 343 4.0 6.0 0.00 0.02 0.01 78 1014.4
20181121015913 59 350 4.0 6.0 0.00 0.02 0.01 78 1014.4
20181121015413 59 317 3.0 5.0 0.00 0.02 0.01 78 1014.4
20181121014909 58 324 3.0 5.0 0.00 0.02 0.01 80 1014.4
20181121014409 58 333 2.0 5.0 0.00 0.02 0.01 81 1014.4
20181121013909 58 338 2.0 6.0 0.00 0.02 0.01 82 1014.5
20181121013401 58 338 2.0 6.0 0.00 0.02 0.01 83 1014.4
20181121012901 57 325 1.0 5.0 0.00 0.02 0.01 85 1014.5
20181121012401 57 342 0.0 0.0 0.00 0.02 0.01 87 1014.5
20181121011903 57 330 0.0 0.0 0.00 0.02 0.01 88 1014.4
20181121011403 57 330 0.0 0.0 0.00 0.02 0.01 89 1014.4
20181121010848 57 330 0.0 0.0 0.00 0.02 0.01 89 1014.5
20181121010349 57 330 0.0 0.0 0.00 0.02 0.01 90 1014.5
20181121005833 57 330 0.0 0.0 0.00 0.02 0.01 91 1014.4
20181121005333 57 330 0.0 0.0 0.00 0.02 0.01 91 1014.4
20181121004816 56 330 0.0 0.0 0.00 0.02 0.01 92 1014.4
20181121004320 56 330 0.0 0.0 0.00 0.02 0.01 92 1014.5
20181121003812 56 330 0.0 0.0 0.01 0.02 0.01 92 1014.5
20181121003305 56 330 0.0 0.0 0.01 0.02 0.01 93 1014.6
20181121002805 56 330 0.0 0.0 0.01 0.02 0.01 93 1014.5
20181121002305 56 330 0.0 0.0 0.01 0.02 0.01 93 1014.5
20181121001804 56 330 0.0 0.0 0.01 0.02 0.01 93 1014.5
20181121001249 56 330 0.0 0.0 0.01 0.02 0.01 93 1014.4
20181121000739 56 330 0.0 0.0 0.01 0.02 0.01 93 1014.5
20181121000233 56 330 0.0 0.0 0.01 0.02 0.01 93 1014.5
20181120235733 56 330 0.0 0.0 0.01 0.02 0.01 94 1014.6
20181120235233 56 330 0.0 0.0 0.01 0.02 0.01 94 1014.6
20181120234725 56 330 0.0 0.0 0.01 0.02 0.01 94 1014.6
20181120234220 56 330 0.0 0.0 0.01 0.02 0.01 94 1014.7
20181120233721 56 330 0.0 0.0 0.00 0.02 0.00 94 1014.7
20181120233220 56 330 0.0 0.0 0.00 0.02 0.00 94 1014.7
20181120232721 57 330 0.0 0.0 0.00 0.02 0.00 94 1014.8
20181120232220 57 330 0.0 0.0 0.00 0.02 0.00 94 1014.8
20181120231721 57 330 0.0 0.0 0.00 0.02 0.00 94 1014.8
20181120231221 57 330 0.0 0.0 0.00 0.02 0.00 94 1014.9
20181120230724 57 330 0.0 0.0 0.00 0.02 0.00 94 1015.0
20181120230217 57 330 0.0 0.0 0.00 0.02 0.00 94 1015.0
20181120225718 57 330 0.0 0.0 0.00 0.02 0.00 94 1015.0
20181120225216 58 330 0.0 0.0 0.00 0.02 0.00 94 1015.0
20181120224717 58 330 0.0 0.0 0.00 0.02 0.00 94 1015.1
20181120224217 58 330 0.0 0.0 0.00 0.02 0.00 94 1015.2
20181120223717 58 330 0.0 0.0 0.00 0.02 0.00 94 1015.2
20181120223156 58 330 0.0 0.0 0.00 0.02 0.00 94 1015.2
20181120222645 58 330 0.0 0.0 0.00 0.02 0.00 94 1015.2
20181120222141 58 330 0.0 0.0 0.00 0.02 0.00 94 1015.3
20181120221637 58 330 0.0 0.0 0.00 0.02 0.00 94 1015.3
20181120221135 58 330 0.0 0.0 0.00 0.02 0.00 94 1015.3
20181120220620 58 330 0.0 0.0 0.00 0.02 0.00 94 1015.3
20181120220121 58 330 0.0 0.0 0.00 0.02 0.00 94 1015.3
20181120215620 58 330 0.0 0.0 0.00 0.02 0.00 95 1015.2
20181120215120 58 330 0.0 0.0 0.00 0.02 0.00 95 1015.3
20181120214622 58 330 0.0 0.0 0.00 0.02 0.00 94 1015.4
20181120214116 58 330 0.0 0.0 0.00 0.02 0.00 95 1015.5
20181120213612 58 330 0.0 0.0 0.00 0.02 0.00 95 1015.4
20181120213047 58 330 0.0 0.0 0.00 0.02 0.00 95 1015.5
20181120212548 58 330 0.0 0.0 0.00 0.02 0.00 94 1015.5
20181120212048 58 330 0.0 0.0 0.00 0.02 0.00 94 1015.4
20181120211548 58 330 0.0 0.0 0.00 0.02 0.00 94 1015.5
20181120211049 58 330 0.0 0.0 0.00 0.02 0.00 94 1015.5
20181120210532 58 330 0.0 0.0 0.00 0.02 0.00 94 1015.7
20181120210031 58 330 0.0 0.0 0.00 0.02 0.00 94 1015.5
20181120205531 58 330 0.0 0.0 0.00 0.02 0.00 95 1015.8
20181120205032 58 330 0.0 0.0 0.00 0.02 0.00 95 1015.9
20181120204529 58 330 0.0 0.0 0.00 0.02 0.00 94 1016.0
20181120204020 58 330 0.0 0.0 0.00 0.02 0.00 94 1016.0
20181120203520 58 330 0.0 0.0 0.00 0.02 0.00 94 1016.0
20181120203022 58 330 0.0 0.0 0.00 0.02 0.00 94 1016.0
20181120202520 58 330 0.0 0.0 0.00 0.02 0.00 94 1016.1
20181120202020 58 330 0.0 0.0 0.00 0.02 0.00 94 1016.0
20181120201520 58 330 0.0 0.0 0.00 0.02 0.00 94 1016.1
20181120201020 58 330 0.0 0.0 0.00 0.02 0.00 94 1016.1
20181120200516 58 330 0.0 0.0 0.00 0.02 0.00 94 1016.2
20181120200016 58 330 0.0 0.0 0.00 0.02 0.00 94 1016.1
20181120195513 58 330 0.0 0.0 0.00 0.02 0.00 94 1016.1
20181120195008 58 330 0.0 0.0 0.00 0.02 0.00 94 1016.3
20181120194452 58 330 0.0 0.0 0.00 0.02 0.00 94 1016.2
20181120193952 59 330 0.0 0.0 0.00 0.02 0.00 94 1016.3
20181120193438 59 330 0.0 0.0 0.00 0.02 0.00 94 1016.4
20181120192921 59 330 0.0 0.0 0.00 0.02 0.00 94 1016.3
20181120192421 59 330 0.0 0.0 0.00 0.02 0.00 94 1016.4
20181120191900 59 330 0.0 0.0 0.00 0.02 0.00 94 1016.4
20181120191400 59 330 0.0 0.0 0.00 0.02 0.00 94 1016.4
20181120190855 59 330 0.0 0.0 0.00 0.02 0.00 93 1016.4
20181120190353 59 330 0.0 0.0 0.00 0.02 0.00 94 1016.5
20181120185844 59 330 0.0 0.0 0.00 0.02 0.00 94 1016.6
20181120185323 59 330 0.0 0.0 0.00 0.02 0.00 94 1016.6
20181120184826 59 330 0.0 0.0 0.00 0.02 0.00 93 1016.6
20181120184326 59 330 0.0 0.0 0.00 0.02 0.00 93 1016.6
20181120183826 59 330 0.0 0.0 0.00 0.02 0.00 93 1016.5
20181120183326 59 330 0.0 0.0 0.00 0.02 0.00 93 1016.6
20181120182826 59 333 0.0 0.0 0.00 0.02 0.00 93 1016.6
20181120182326 59 333 0.0 0.0 0.00 0.02 0.00 93 1016.6
20181120181826 59 333 0.0 0.0 0.00 0.02 0.00 93 1016.6
20181120181326 59 333 0.0 0.0 0.00 0.02 0.00 93 1016.6
20181120180825 60 333 0.0 0.0 0.00 0.02 0.00 93 1016.6
20181120180325 60 333 0.0 0.0 0.00 0.02 0.00 93 1016.7
20181120175825 60 333 0.0 0.0 0.00 0.02 0.00 93 1016.6
20181120175325 60 333 0.0 0.0 0.00 0.02 0.00 93 1016.7
20181120174825 60 350 0.0 0.0 0.00 0.02 0.00 92 1016.7
20181120174308 60 355 0.0 2.0 0.00 0.02 0.00 93 1016.7